Location: Newark
(34.0131°N, 4.3314°W)
Time: 10:44:33
(UTC+00:00)

Explorer 11/Cluster Stage 4 - Pass Details

Date: 31 October 2019
Orbit: 467 x 1259 km, 28.8° (Epoch: 17 November)

Event Time Altitude Azimuth Distance (km) Brightness Sun altitude
Rises 08:27:18 0° 266° (W) 2,982 9.1 20.1°
Reaches altitude 10° 08:30:12 10° 253° (WSW) 1,935 8.3 20.6°
Maximum altitude 08:33:44 24° 199° (SSW) 1,147 7.8 21.2°
Drops below altitude 10° 08:36:52 10° 144° (SE) 1,693 9.9 21.7°
Sets 08:39:14 0° 130° (SE) 2,518 10.7 22.1°
